When you browse on this site, cookies collect data to enhance your experience and personalize the content and advertising you see.
Visit our Privacy Policy to learn more. By continuing to use the site, you agree to this use of cookies and data.
  • In Schweiz
  • Länderverzeichnis
  • Für 7 Tage
  • Wassertemperatur
  • Satellitenkarten
  • Wetterkarte
  • Widgets
  • user-avatar
    Anmelden

    Stündliche Wetter Pleskachivka

    Heute, 20 Juli, Samstag

    Zeit Temperatur Niederschläge Wind Luftdruck Luftfeuchtigkeit
    00:00 +17°C° 0 mm 2 m/S 750 mmHg 75%
    01:00 +17°C° 0 mm 2 m/S 750 mmHg 76%
    02:00 +16°C° 0 mm 2 m/S 750 mmHg 75%
    03:00 +16°C° 0 mm 2 m/S 750 mmHg 75%
    04:00 +16°C° 0 mm 2 m/S 751 mmHg 76%
    05:00 +16°C° 0 mm 2 m/S 751 mmHg 76%
    06:00 +18°C° 0 mm 2 m/S 751 mmHg 71%
    07:00 +21°C° 0 mm 2 m/S 751 mmHg 66%
    08:00 +24°C° 0 mm 3 m/S 752 mmHg 62%
    09:00 +25°C° 0.1 mm 2 m/S 752 mmHg 58%
    10:00 +26°C° 0.1 mm 2 m/S 752 mmHg 53%
    11:00 +27°C° 0.1 mm 2 m/S 752 mmHg 48%
    12:00 +28°C° 0 mm 2 m/S 751 mmHg 47%
    13:00 +28°C° 0 mm 2 m/S 751 mmHg 46%
    14:00 +28°C° 0 mm 2 m/S 751 mmHg 45%
    15:00 +27°C° 0 mm 3 m/S 751 mmHg 49%
    16:00 +27°C° 0 mm 3 m/S 751 mmHg 52%
    17:00 +26°C° 0 mm 3 m/S 751 mmHg 55%
    18:00 +24°C° 0 mm 3 m/S 751 mmHg 57%
    19:00 +23°C° 0 mm 2 m/S 751 mmHg 59%
    20:00 +22°C° 0 mm 1 m/S 751 mmHg 62%
    21:00 +21°C° 0 mm 1 m/S 751 mmHg 63%
    22:00 +21°C° 0 mm 1 m/S 751 mmHg 64%
    23:00 +20°C° 0 mm 1 m/S 751 mmHg 65%

    Morgen, 21 Juli, Sonntag

    Zeit Temperatur Niederschläge Wind Luftdruck Luftfeuchtigkeit
    00:00 +20°C° 0 mm 1 m/S 751 mmHg 66%
    01:00 +20°C° 0 mm 1 m/S 751 mmHg 68%
    02:00 +18°C° 0 mm 2 m/S 751 mmHg 70%
    03:00 +18°C° 0 mm 2 m/S 751 mmHg 71%
    04:00 +19°C° 0 mm 1 m/S 751 mmHg 72%
    05:00 +19°C° 0 mm 1 m/S 751 mmHg 74%
    06:00 +21°C° 0 mm 1 m/S 751 mmHg 69%
    07:00 +23°C° 0 mm 1 m/S 751 mmHg 64%
    08:00 +25°C° 0 mm 2 m/S 751 mmHg 60%
    09:00 +26°C° 0.1 mm 2 m/S 751 mmHg 56%
    10:00 +27°C° 0.1 mm 2 m/S 751 mmHg 53%
    11:00 +28°C° 0.1 mm 2 m/S 751 mmHg 50%
    12:00 +29°C° 0.3 mm 3 m/S 751 mmHg 49%
    13:00 +29°C° 0.3 mm 3 m/S 750 mmHg 48%
    14:00 +29°C° 0.3 mm 3 m/S 750 mmHg 48%
    15:00 +29°C° 0.2 mm 2 m/S 750 mmHg 49%
    16:00 +29°C° 0.2 mm 2 m/S 750 mmHg 51%
    17:00 +29°C° 0.2 mm 2 m/S 750 mmHg 52%
    18:00 +27°C° 0.2 mm 2 m/S 750 mmHg 59%
    19:00 +25°C° 0.2 mm 1 m/S 750 mmHg 66%
    20:00 +23°C° 0.2 mm 1 m/S 750 mmHg 73%
    21:00 +22°C° 0.2 mm 1 m/S 750 mmHg 76%
    22:00 +21°C° 0.2 mm 2 m/S 750 mmHg 78%
    23:00 +20°C° 0.2 mm 2 m/S 750 mmHg 81%

    übermorgen, 22 Juli, Montag

    Zeit Temperatur Niederschläge Wind Luftdruck Luftfeuchtigkeit
    00:00 +20°C° 0 mm 2 m/S 750 mmHg 81%
    01:00 +20°C° 0 mm 2 m/S 750 mmHg 82%
    02:00 +20°C° 0 mm 2 m/S 750 mmHg 82%
    03:00 +20°C° 0 mm 1 m/S 750 mmHg 83%
    04:00 +20°C° 0 mm 1 m/S 749 mmHg 84%
    05:00 +20°C° 0 mm 1 m/S 749 mmHg 84%
    06:00 +22°C° 0 mm 1 m/S 749 mmHg 78%
    07:00 +24°C° 0 mm 1 m/S 749 mmHg 72%
    08:00 +26°C° 0 mm 2 m/S 749 mmHg 66%
    09:00 +27°C° 0.3 mm 2 m/S 749 mmHg 61%
    10:00 +28°C° 0.3 mm 2 m/S 749 mmHg 57%
    11:00 +29°C° 0.3 mm 3 m/S 749 mmHg 53%
    12:00 +29°C° 0.3 mm 3 m/S 749 mmHg 53%
    13:00 +29°C° 0.3 mm 4 m/S 748 mmHg 54%
    14:00 +30°C° 0.3 mm 4 m/S 748 mmHg 55%
    15:00 +29°C° 0.4 mm 4 m/S 748 mmHg 57%
    16:00 +29°C° 0.4 mm 3 m/S 748 mmHg 59%
    17:00 +28°C° 0.4 mm 3 m/S 747 mmHg 62%
    18:00 +26°C° 0.6 mm 3 m/S 747 mmHg 69%
    19:00 +25°C° 0.6 mm 2 m/S 747 mmHg 77%
    20:00 +23°C° 0.6 mm 2 m/S 747 mmHg 85%
    21:00 +21°C° 0.1 mm 2 m/S 748 mmHg 87%
    22:00 +21°C° 0.1 mm 2 m/S 748 mmHg 89%
    23:00 +20°C° 0.1 mm 2 m/S 748 mmHg 91%

    23 Juli, Dienstag

    Zeit Temperatur Niederschläge Wind Luftdruck Luftfeuchtigkeit
    00:00 +20°C° 0.4 mm 2 m/S 748 mmHg 92%
    01:00 +19°C° 0.4 mm 2 m/S 747 mmHg 94%
    02:00 +19°C° 0.4 mm 2 m/S 747 mmHg 95%
    03:00 +19°C° 0.8 mm 3 m/S 747 mmHg 95%
    04:00 +19°C° 0.8 mm 3 m/S 747 mmHg 95%
    05:00 +18°C° 0.8 mm 3 m/S 747 mmHg 95%
    06:00 +19°C° 0.4 mm 3 m/S 747 mmHg 91%
    07:00 +20°C° 0.4 mm 4 m/S 747 mmHg 88%
    08:00 +21°C° 0.4 mm 4 m/S 747 mmHg 85%
    09:00 +22°C° 0.6 mm 4 m/S 747 mmHg 80%
    10:00 +22°C° 0.6 mm 4 m/S 748 mmHg 75%
    11:00 +24°C° 0.6 mm 3 m/S 748 mmHg 71%
    12:00 +23°C° 0.6 mm 4 m/S 747 mmHg 71%
    13:00 +23°C° 0.6 mm 4 m/S 747 mmHg 71%
    14:00 +23°C° 0.6 mm 4 m/S 747 mmHg 71%
    15:00 +23°C° 0.2 mm 4 m/S 747 mmHg 72%
    16:00 +22°C° 0.2 mm 5 m/S 747 mmHg 73%
    17:00 +22°C° 0.2 mm 5 m/S 747 mmHg 74%
    18:00 +21°C° 0 mm 4 m/S 747 mmHg 74%
    19:00 +21°C° 0 mm 3 m/S 747 mmHg 75%
    20:00 +20°C° 0 mm 3 m/S 747 mmHg 75%
    21:00 +19°C° 0 mm 2 m/S 747 mmHg 77%
    22:00 +19°C° 0 mm 2 m/S 747 mmHg 79%
    23:00 +18°C° 0 mm 2 m/S 748 mmHg 81%

    24 Juli, Mittwoch

    Zeit Temperatur Niederschläge Wind Luftdruck Luftfeuchtigkeit
    00:00 +18°C° 0 mm 2 m/S 747 mmHg 84%
    01:00 +17°C° 0 mm 2 m/S 747 mmHg 87%
    02:00 +16°C° 0 mm 2 m/S 747 mmHg 90%
    03:00 +16°C° 0 mm 2 m/S 747 mmHg 92%
    04:00 +16°C° 0 mm 2 m/S 747 mmHg 93%
    05:00 +15°C° 0 mm 2 m/S 747 mmHg 95%
    06:00 +18°C° 0 mm 1 m/S 747 mmHg 89%
    07:00 +19°C° 0 mm 1 m/S 747 mmHg 82%
    08:00 +21°C° 0 mm 1 m/S 748 mmHg 76%
    09:00 +21°C° 0 mm 2 m/S 747 mmHg 71%
    10:00 +23°C° 0 mm 2 m/S 747 mmHg 66%
    11:00 +24°C° 0 mm 2 m/S 747 mmHg 61%
    12:00 +25°C° 0 mm 2 m/S 747 mmHg 58%
    13:00 +26°C° 0 mm 2 m/S 747 mmHg 55%
    14:00 +27°C° 0 mm 3 m/S 747 mmHg 52%
    15:00 +26°C° 0 mm 3 m/S 747 mmHg 54%
    16:00 +26°C° 0 mm 3 m/S 747 mmHg 56%
    17:00 +26°C° 0 mm 4 m/S 747 mmHg 58%
    18:00 +25°C° 0 mm 3 m/S 747 mmHg 63%
    19:00 +22°C° 0 mm 3 m/S 747 mmHg 68%
    20:00 +20°C° 0 mm 3 m/S 747 mmHg 73%
    21:00 +20°C° 0 mm 3 m/S 747 mmHg 79%
    22:00 +19°C° 0 mm 3 m/S 747 mmHg 84%
    23:00 +18°C° 0 mm 2 m/S 747 mmHg 89%

    25 Juli, Donnerstag

    Zeit Temperatur Niederschläge Wind Luftdruck Luftfeuchtigkeit
    00:00 +18°C° 0 mm 2 m/S 747 mmHg 90%
    01:00 +17°C° 0 mm 2 m/S 747 mmHg 91%
    02:00 +17°C° 0 mm 2 m/S 747 mmHg 91%
    03:00 +17°C° 0 mm 2 m/S 747 mmHg 92%
    04:00 +17°C° 0 mm 2 m/S 746 mmHg 92%
    05:00 +17°C° 0 mm 2 m/S 746 mmHg 92%
    06:00 +18°C° 0 mm 2 m/S 746 mmHg 87%
    07:00 +20°C° 0 mm 3 m/S 746 mmHg 81%
    08:00 +21°C° 0 mm 3 m/S 746 mmHg 76%
    09:00 +22°C° 0.1 mm 4 m/S 746 mmHg 73%
    10:00 +23°C° 0.1 mm 5 m/S 746 mmHg 70%
    11:00 +25°C° 0.1 mm 5 m/S 746 mmHg 67%
    12:00 +25°C° 0.6 mm 5 m/S 746 mmHg 70%
    13:00 +25°C° 0.6 mm 5 m/S 746 mmHg 73%
    14:00 +23°C° 0.6 mm 4 m/S 745 mmHg 76%
    15:00 +25°C° 0.5 mm 5 m/S 745 mmHg 75%
    16:00 +25°C° 0.5 mm 5 m/S 745 mmHg 74%
    17:00 +26°C° 0.5 mm 5 m/S 745 mmHg 73%
    18:00 +25°C° 0.4 mm 5 m/S 745 mmHg 78%
    19:00 +23°C° 0.4 mm 5 m/S 745 mmHg 84%
    20:00 +21°C° 0.4 mm 4 m/S 745 mmHg 89%
    21:00 +21°C° 0 mm 4 m/S 745 mmHg 90%
    22:00 +21°C° 0 mm 4 m/S 745 mmHg 92%
    23:00 +20°C° 0 mm 4 m/S 745 mmHg 93%
    Mehr zeigen